TimeEST,TemperatureF,Dew PointF,Humidity,Sea Level PressureIn,VisibilityMPH,Wind Direction,Wind SpeedMPH,Gust SpeedMPH,PrecipitationIn,Events,Conditions,WindDirDegrees,DateUTC
12:51 AM,37.4,19.4,48,29.85,10.0,WNW,16.1,23.0,N/A,,Partly Cloudy,290,2012-11-25 05:51:00
1:51 AM,37.9,19.9,48,29.86,10.0,WNW,17.3,23.0,N/A,,Mostly Cloudy,290,2012-11-25 06:51:00
2:51 AM,37.0,21.0,52,29.87,10.0,WNW,12.7,20.7,N/A,,Scattered Clouds,300,2012-11-25 07:51:00
3:51 AM,37.0,17.1,44,29.88,10.0,WNW,25.3,33.4,N/A,,Partly Cloudy,300,2012-11-25 08:51:00
4:51 AM,36.0,16.0,44,29.90,10.0,NW,13.8,23.0,N/A,,Partly Cloudy,320,2012-11-25 09:51:00
5:51 AM,36.0,19.0,50,29.91,10.0,NW,12.7,-,N/A,,Mostly Cloudy,310,2012-11-25 10:51:00
6:51 AM,36.0,18.0,48,29.92,10.0,WNW,11.5,-,N/A,,Mostly Cloudy,290,2012-11-25 11:51:00
7:51 AM,37.0,18.0,46,29.93,10.0,NW,19.6,26.5,N/A,,Mostly Cloudy,310,2012-11-25 12:51:00
8:51 AM,37.9,19.0,47,29.93,10.0,WNW,17.3,27.6,N/A,,Mostly Cloudy,300,2012-11-25 13:51:00
9:51 AM,39.0,21.0,49,29.92,10.0,NW,17.3,27.6,N/A,,Mostly Cloudy,310,2012-11-25 14:51:00
10:51 AM,39.9,21.0,47,29.91,10.0,West,18.4,25.3,N/A,,Mostly Cloudy,270,2012-11-25 15:51:00
11:51 AM,39.9,19.0,43,29.90,10.0,West,16.1,23.0,N/A,,Mostly Cloudy,270,2012-11-25 16:51:00
12:51 PM,39.9,19.9,45,29.88,10.0,West,15.0,21.9,N/A,,Mostly Cloudy,260,2012-11-25 17:51:00
1:51 PM,41.0,21.0,45,29.87,10.0,West,17.3,-,N/A,,Mostly Cloudy,260,2012-11-25 18:51:00
2:51 PM,39.9,21.9,49,29.87,10.0,West,17.3,23.0,N/A,,Mostly Cloudy,270,2012-11-25 19:51:00
3:51 PM,39.9,21.9,49,29.87,10.0,West,13.8,-,N/A,,Mostly Cloudy,260,2012-11-25 20:51:00
4:51 PM,39.0,21.9,50,29.88,10.0,West,12.7,17.3,N/A,,Scattered Clouds,260,2012-11-25 21:51:00
5:51 PM,39.0,21.0,49,29.90,10.0,West,15.0,24.2,N/A,,Scattered Clouds,270,2012-11-25 22:51:00
6:51 PM,39.0,21.9,50,29.92,10.0,WSW,13.8,18.4,N/A,,Mostly Cloudy,240,2012-11-25 23:51:00
7:51 PM,37.9,21.0,51,29.94,10.0,WSW,17.3,23.0,N/A,,Mostly Cloudy,240,2012-11-26 00:51:00
8:51 PM,37.9,21.9,53,29.96,10.0,West,18.4,24.2,N/A,,Mostly Cloudy,260,2012-11-26 01:51:00
9:51 PM,37.9,21.9,53,29.96,10.0,WSW,13.8,23.0,N/A,,Mostly Cloudy,250,2012-11-26 02:51:00
10:51 PM,37.9,21.9,53,29.96,10.0,WSW,15.0,-,N/A,,Overcast,240,2012-11-26 03:51:00
11:51 PM,37.9,21.9,53,29.97,10.0,SW,15.0,-,N/A,,Mostly Cloudy,230,2012-11-26 04:51:00